Regional Weather Roundup
Issued by NWS Sioux Falls, SD

Home | Current Version | Previous Version | Graphics & Text | Print | Product List | Glossary Off
Versions: 1 2 3 4 5 6 7 8 9 10 11 12 13 14 15 16 17 18 19 20 21 22 23 24 25 26 27 28 29 30 31 32 33 34 35 36 37 38 39 40 41 42 43 44 45 46 47 48 49 50

000
ASUS43 KFSD 250210
RWRFSD

WEATHER ROUNDUP FOR SE SOUTH DAKOTA/SW MINNESOTA/NW IOWA
NATIONAL WEATHER SERVICE SIOUX FALLS SD
900 PM CDT WED AUG 24 2016

NOTE: "FAIR" INDICATES FEW OR NO CLOUDS BELOW 12,000 FEET WITH NO
SIGNIFICANT WEATHER AND OR OBSTRUCTIONS TO VISIBILITY.


SDZ038>040-050-052>070-250300-
SOUTHEAST SOUTH DAKOTA

CITY           SKY/WX    TMP DP  RH WIND       PRES   REMARKS
BROOKINGS      PTCLDY    65  58  78 SW7       30.05S
CHAMBERLAIN    CLOUDY    65  57  74 S3        30.08S
HURON          CLOUDY    68  55  63 SW9       30.04R
MADISON        FAIR      66  59  77 SW5       30.06S
MITCHELL       CLOUDY    69  56  62 W8        30.06S
SIOUX FALLS    CLOUDY    69  59  70 SW3       30.06R
WINNER         FAIR      66  55  67 SW7       30.11S
YANKTON        PTCLDY    66  55  68 S3        30.06R
$$

MNZ071-072-080-081-089-090-097-098-250300-
SOUTHWEST MINNESOTA

CITY           SKY/WX    TMP DP  RH WIND       PRES   REMARKS
FAIRMONT       PTCLDY    66  61  84 SW5       30.03F
JACKSON        CLOUDY    64  59  82 W3        30.05F
LUVERNE        PTCLDY    61  57  88 W5        30.06S
MARSHALL       CLOUDY    66  59  78 SW8       30.03R
MONTEVIDEO     CLOUDY    66  57  72 N5        30.00F
REDWOOD FALLS  CLOUDY    68  60  75 W5        30.00S
TRACY          CLOUDY    66  61  84 SW6       30.04R
WINDOM         PTCLDY    66  59  77 W6        30.04S
WORTHINGTON    CLOUDY    64  60  87 W7        30.06S
$$

IAZ001>003-012>014-020>022-031-032-NEZ013-014-SDZ071-250300-
NORTHWEST IOWA

CITY           SKY/WX    TMP DP  RH WIND       PRES   REMARKS
CHEROKEE       CLOUDY    68  65  92 CALM      30.05R
DENISON        CLOUDY    68  64  88 N7        30.02S
ESTHERVILLE    CLOUDY    64  62  93 W5        30.04F
LE MARS        CLOUDY    66  63  88 CALM      30.07R
ORANGE CITY    CLOUDY    64  63  94 CALM      30.06S
SHELDON        CLOUDY    64  61  88 W5        30.04S
SIOUX CITY     CLOUDY    66  60  81 NW5       30.06R
SPENCER        CLOUDY    66  62  87 W5        30.04F
STORM LAKE     CLOUDY    66  64  94 NW7       30.05S
$$

ABBREVIATIONS USED IN REMARKS
   TC - TEMPERATURE IN CELSIUS
  WCI - WIND CHILL INDEX
   HX - HEAT INDEX
  VSB - VISIBILITY





USA.gov is the U.S. government's official web portal to all federal, state and local government web resources and services.